TimePST,TemperatureF,Dew PointF,Humidity,Sea Level PressureIn,VisibilityMPH,Wind Direction,Wind SpeedMPH,Gust SpeedMPH,PrecipitationIn,Events,Conditions,WindDirDegrees,DateUTC
12:48 AM,30.2,26.6,86,30.52,2.5,NW,4.6,-,N/A,,Overcast,320,2014-01-25 08:48:00
12:53 AM,28.9,26.1,89,30.58,2.0,WNW,3.5,-,N/A,,Overcast,300,2014-01-25 08:53:00
1:00 AM,30.0,26.1,85,30.52,1.5,WNW,3.5,-,N/A,,Overcast,300,2014-01-25 09:00:00
1:33 AM,28.9,27.0,92,30.52,2.0,SW,3.5,-,N/A,,Overcast,230,2014-01-25 09:33:00
1:42 AM,30.0,27.0,88,30.52,1.5,Calm,Calm,-,N/A,,Overcast,0,2014-01-25 09:42:00
1:53 AM,28.9,26.1,89,30.58,1.5,Calm,Calm,-,N/A,,Overcast,0,2014-01-25 09:53:00
2:22 AM,30.0,26.1,85,30.51,2.5,ESE,4.6,-,N/A,,Overcast,110,2014-01-25 10:22:00
2:35 AM,28.9,26.1,89,30.51,4.0,SE,5.8,-,N/A,,Overcast,130,2014-01-25 10:35:00
2:53 AM,28.9,26.1,89,30.57,4.0,SE,6.9,-,N/A,,Overcast,130,2014-01-25 10:53:00
3:53 AM,28.9,25.0,85,30.57,7.0,East,3.5,-,N/A,,Overcast,90,2014-01-25 11:53:00
4:38 AM,28.0,25.0,88,30.50,6.0,Calm,Calm,-,N/A,,Overcast,0,2014-01-25 12:38:00
4:53 AM,28.9,25.0,85,30.56,5.0,NNE,3.5,-,N/A,,Overcast,20,2014-01-25 12:53:00
5:25 AM,28.9,24.1,82,30.49,8.0,Calm,Calm,-,N/A,,Overcast,0,2014-01-25 13:25:00
5:53 AM,28.0,24.1,85,30.55,7.0,North,3.5,-,N/A,,Overcast,350,2014-01-25 13:53:00
6:53 AM,28.0,23.0,81,30.54,10.0,West,3.5,-,N/A,,Overcast,280,2014-01-25 14:53:00
7:53 AM,28.0,23.0,81,30.55,10.0,NE,3.5,-,N/A,,Overcast,50,2014-01-25 15:53:00
8:53 AM,28.0,23.0,81,30.55,10.0,Calm,Calm,-,N/A,,Overcast,0,2014-01-25 16:53:00
9:53 AM,28.0,23.0,81,30.55,10.0,WNW,3.5,-,N/A,,Overcast,300,2014-01-25 17:53:00
10:53 AM,28.0,24.1,85,30.55,10.0,Calm,Calm,-,N/A,,Overcast,0,2014-01-25 18:53:00
11:53 AM,28.9,23.0,78,30.51,10.0,SE,3.5,-,N/A,,Overcast,140,2014-01-25 19:53:00
12:53 PM,28.9,23.0,78,30.49,10.0,WSW,3.5,-,N/A,,Overcast,240,2014-01-25 20:53:00
1:53 PM,30.0,24.1,79,30.47,10.0,Calm,Calm,-,N/A,,Overcast,0,2014-01-25 21:53:00
2:53 PM,30.0,23.0,75,30.46,10.0,Calm,Calm,-,N/A,,Overcast,0,2014-01-25 22:53:00
3:41 PM,28.9,24.1,82,30.40,9.0,South,3.5,-,N/A,,Overcast,170,2014-01-25 23:41:00
3:53 PM,28.9,24.1,82,30.46,10.0,South,3.5,-,N/A,,Overcast,180,2014-01-25 23:53:00
4:10 PM,28.9,24.1,82,30.40,10.0,South,3.5,-,N/A,,Overcast,190,2014-01-26 00:10:00
4:53 PM,28.9,23.0,78,30.45,10.0,ENE,5.8,-,N/A,,Overcast,70,2014-01-26 00:53:00
5:53 PM,28.9,23.0,78,30.44,10.0,Calm,Calm,-,N/A,,Overcast,0,2014-01-26 01:53:00
6:53 PM,28.9,24.1,82,30.44,10.0,Calm,Calm,-,N/A,,Overcast,0,2014-01-26 02:53:00
7:53 PM,28.0,24.1,85,30.43,10.0,Calm,Calm,-,N/A,,Overcast,0,2014-01-26 03:53:00
8:53 PM,28.0,24.1,85,30.42,9.0,Calm,Calm,-,N/A,,Overcast,0,2014-01-26 04:53:00
9:53 PM,28.0,24.1,85,30.41,8.0,West,3.5,-,N/A,,Overcast,270,2014-01-26 05:53:00
10:53 PM,28.0,24.1,85,30.41,9.0,Calm,Calm,-,N/A,,Overcast,0,2014-01-26 06:53:00
11:53 PM,28.0,24.1,85,30.39,9.0,WNW,3.5,-,N/A,,Overcast,290,2014-01-26 07:53:00